Change the Weather History Date:

Saturday, March 8, 2014

  Actual Average Record
Temperature  
Mean Temperature 47 °F 41 °F  
Max Temperature 58 °F 50 °F 80 °F (2000)
Min Temperature 35 °F 32 °F 12 °F (1986)
Degree Days  
Heating Degree Days 18 24  
Month to date heating degree days 268 200  
Since 1 July heating degree days 3924 3682  
Cooling Degree Days 0 0  
Month to date cooling degree days 0 0  
Year to date cooling degree days 0 0  
Moisture  
Dew Point 28 °F    
Average Humidity 53    
Maximum Humidity 76    
Minimum Humidity 30    
Precipitation  
Precipitation 0.00 in 0.12 in 1.51 in (2008)
Month to date precipitation 0.38 0.87  
Year to date precipitation 9.05 6.55  
Snow  
Snow 0.00 in 0.10 in 8.00 in (1941)
Month to date snowfall 3.4 1.2  
Since 1 July snowfall 62.9 20.2  
Snow Depth 0.00 in    
Sea Level Pressure  
Sea Level Pressure 29.91 in    
Wind  
Wind Speed 9 mph (NW)    
Max Wind Speed 23 mph    
Max Gust Speed 30 mph    
Visibility 10 miles    
Events      
T = Trace of Precipitation, MM = Missing Value Source: NWS Daily Summary

Daily Weather History Graph

Daily Weather History Graph

Search for Another Location

Airport or City:

Trip Planner

Search our weather history database for the weather conditions in past years. The results will help you decide how hot, cold, wet, or windy it might be!

Date:

Astronomy

Mar. 08, 2014 Rise Set
Actual Time 6:23 AM EST 6:00 PM EST
Civil Twilight 5:56 AM EST 6:27 PM EST
Nautical Twilight 5:25 AM EST 6:58 PM EST
Astronomical Twilight 4:53 AM EST 7:30 PM EST
Moon 11:03 AM EST (3/8) 12:55 AM EST (3/8)
Length of Visible Light 12h 30m
Length of Day
11h 36m
First Quarter, 51% of the Moon is Illuminated
Mar 8
First Quarter
Mar 16
Full
Mar 23
Last Quarter
Mar 30
New
Apr 7
First Quarter

Hourly Weather History & Observations

Time (EST) Temp. Windchill Dew Point Humidity Pressure Visibility Wind Dir Wind Speed Gust Speed Precip Events Conditions
12:54 AM 37.0 °F 29.8 °F 26.1 °F 65% 29.91 in 10.0 mi North 10.4 mph - N/A   Overcast
1:47 AM 37.0 °F 30.4 °F 27.0 °F 67% 29.91 in 10.0 mi North 9.2 mph - N/A   Mostly Cloudy
1:54 AM 37.0 °F 29.8 °F 27.0 °F 67% 29.91 in 10.0 mi North 10.4 mph - N/A   Mostly Cloudy
2:35 AM 37.0 °F 33.3 °F 26.1 °F 65% 29.91 in 10.0 mi North 4.6 mph - N/A   Overcast
2:54 AM 37.0 °F 34.5 °F 26.1 °F 65% 29.90 in 10.0 mi North 3.5 mph - N/A   Overcast
3:54 AM 37.9 °F 33.5 °F 27.0 °F 65% 29.90 in 10.0 mi NW 5.8 mph - N/A   Overcast
4:54 AM 37.9 °F 32.7 °F 28.0 °F 68% 29.91 in 10.0 mi NNW 6.9 mph - N/A   Overcast
5:18 AM 37.0 °F 31.6 °F 28.9 °F 73% 29.91 in 10.0 mi NNW 6.9 mph - N/A   Scattered Clouds
5:54 AM 35.1 °F 32.2 °F 28.0 °F 76% 29.91 in 10.0 mi NW 3.5 mph - N/A   Partly Cloudy
6:54 AM 36.0 °F 32.1 °F 28.0 °F 73% 29.93 in 10.0 mi WNW 4.6 mph - N/A   Clear
7:54 AM 37.0 °F 31.0 °F 30.0 °F 76% 29.93 in 10.0 mi WSW 8.1 mph - N/A   Partly Cloudy
8:54 AM 39.9 °F 34.5 °F 28.0 °F 63% 29.94 in 10.0 mi SW 8.1 mph - N/A   Partly Cloudy
9:54 AM 44.1 °F 39.0 °F 28.9 °F 55% 29.93 in 10.0 mi WSW 9.2 mph - N/A   Scattered Clouds
10:54 AM 52.0 °F - 28.0 °F 40% 29.91 in 10.0 mi WNW 8.1 mph - N/A   Scattered Clouds
11:54 AM 55.0 °F - 26.1 °F 33% 29.91 in 10.0 mi WNW 12.7 mph - N/A   Scattered Clouds
12:54 PM 57.0 °F - 26.1 °F 30% 29.88 in 10.0 mi WNW 13.8 mph - N/A   Scattered Clouds
1:54 PM 57.0 °F - 26.1 °F 30% 29.85 in 10.0 mi WNW 18.4 mph 27.6 mph N/A   Scattered Clouds
2:54 PM 57.0 °F - 28.0 °F 33% 29.86 in 10.0 mi WNW 16.1 mph 24.2 mph N/A   Scattered Clouds
3:54 PM 55.9 °F - 28.9 °F 36% 29.86 in 10.0 mi West 17.3 mph - N/A   Mostly Cloudy
4:54 PM 55.9 °F - 28.9 °F 36% 29.87 in 10.0 mi WNW 11.5 mph - N/A   Scattered Clouds
5:54 PM 52.0 °F - 30.0 °F 43% 29.88 in 10.0 mi West 9.2 mph - N/A   Mostly Cloudy
6:54 PM 53.1 °F - 30.0 °F 41% 29.90 in 10.0 mi West 8.1 mph - N/A   Scattered Clouds
7:54 PM 48.0 °F - 30.0 °F 50% 29.91 in 10.0 mi WSW 8.1 mph - N/A   Partly Cloudy
8:54 PM 50.0 °F - 30.0 °F 46% 29.92 in 10.0 mi WNW 8.1 mph - N/A   Scattered Clouds
9:54 PM 48.0 °F - 30.0 °F 50% 29.93 in 10.0 mi NNW 5.8 mph - N/A   Mostly Cloudy
10:54 PM 48.0 °F - 30.9 °F 52% 29.93 in 10.0 mi North 5.8 mph - N/A   Overcast
11:50 PM 48.2 °F - 32.0 °F 54% 29.92 in 9.0 mi NW 5.8 mph - N/A   Overcast
11:54 PM 48.0 °F - 32.0 °F 54% 29.92 in 9.0 mi NW 5.8 mph - N/A   Overcast